Voltar ao catálogo

STARLINK-31695

AtivoComunicaçõesVLEO
NORAD 59376·PAYLOAD·🇺🇸 United States

Lançado Apr 2, 2024 de Vandenberg Space Force Base

Loading…

Próximas Passagens (próximas 24 horas)

TLE

AtualizadoSource: CelesTrak SupGP

Época: Sep 15, 2026, 02:58 UTC

1 59376C 24062C   26258.12409722 -.00005914  00000+0 -17475-3 0  2589
2 59376  53.1567  92.7688 0001215  86.6069  30.2486 15.34389563    14

Acompanhe STARLINK-31695 em tempo real com AllMySat

Download on the App Store